Tianmu-1 qixiang xingzou 04

operational
NORAD ID: 55974 Int'l Des: 2023-039 Owner: TIANMU Country: CN
LEOCIRCULARRETROGRADESSO

Über Tianmu-1 qixiang xingzou 04

Beschreibung wird geladen...

Live-Position

3D-Globus wird geladen...

Nächste Überflüge

Höhenverlauf

Altitude vs Time

uPlot chart will show altitude changes over time

Zweizeiliger Elementsatz

1 55974U 23039B 26063.20140576 .00027242 00000-0 59098-3 0 9990
2 55974 97.5099 232.4975 0004651 113.2952 246.8786 15.44359249164628
Epoch: 4. März 2026 • Age: 14 hours

Aktueller Status

Höhe 448.0 km
Geschwindigkeit 7.64 km/s
Subsatellitenpunkt -36.67°S, 41.78°E
Startdatum 22. März 2023
Alter 2.9 years
Typ other

Technische Details

Klassifizierung Payload
Masse 50.00 kg
Trockenmasse 50.00 kg
Gesamtmasse 50.00 kg
Länge 1.50 m
Durchmesser 1.00 m
Spannweite 1.50 m
Form Box
Hersteller TIANMU
Bus-Typ Tianmu
Phasenstatus In Orbit
Besitzer/Staat TIANMU/CN

Große Konstellationen

Loading constellations...